Location: McFarlands Corners
(41.4117°N, 81.3382°W)
Time: 05:25:43
(UTC+00:00)

A-11 Canister half - Pass Details

Date: 19 February 2026
Orbit: 1524 x 1683 km, 47.3° (Epoch: 14 March)

Event Time Altitude Azimuth Distance (km) Brightness Sun altitude
Rises 03:08:36 0° 296° (WNW) 4,677 12.3 -45.4°
Reaches altitude 10° 03:11:37 10° 296° (WNW) 3,693 11.5 -45.9°
Enters shadow 03:17:16 43° 290° (WNW) 2,043 9.7 -46.8°
